Hereford, TX

9:19 PM CDT on September 19, 2017 (GMT -0500)
Hereford Municipal

Weather History for KHRX - February, 2013

Change the Weather History Date:

Thursday, February 7, 2013

  Actual Average (KCVN) Record (KCVN)
Temperature  
Mean Temperature 40 °F -  
Max Temperature 53 °F 49 °F 78 °F (2015)
Min Temperature 26 °F 22 °F -10 °F (1933)
Degree Days  
Heating Degree Days 26    
Moisture  
Dew Point 22 °F    
Average Humidity 42    
Maximum Humidity 64    
Minimum Humidity 28    
Precipitation  
Precipitation 0.00 in - - ()
Sea Level Pressure  
Sea Level Pressure 30.07 in    
Wind  
Wind Speed - (North)    
Max Wind Speed -    
Max Gust Speed -    
Visibility 10 miles    
Events      
Averages and records for this station are not official NWS values.
T = Trace of Precipitation, MM = Missing Value Source: NWS Daily Summary

Daily Weather History Graph

Daily Weather History Graph

Search for Another Location

Airport or City:

Trip Planner

Search our weather history database for the weather conditions in past years. The results will help you decide how hot, cold, wet, or windy it might be!

Date:

Astronomy

Feb. 07, 2013 Rise Set
Actual Time 7:42 AM CST 6:24 PM CST
Civil Twilight 7:16 AM CST 6:50 PM CST
Nautical Twilight 6:46 AM CST 7:20 PM CST
Astronomical Twilight 6:16 AM CST 7:50 PM CST
Moon 5:20 AM CST (2/7) 3:54 PM CST (2/7)
Length of Visible Light 11h 34m
Length of Day
10h 42m
Waning Crescent, 9% of the Moon is Illuminated
Feb 7
Waning Crescent
Feb 10
New
Feb 17
First Quarter
Feb 25
Full
Mar 4
Last Quarter

Hourly Weather History & Observations

Time (CST) Temp. Dew Point Humidity Pressure Visibility Wind Dir Wind Speed Gust Speed Precip Events Conditions
12:15 AM 51.8 °F 24.8 °F 35% 29.79 in 10.0 mi North - - N/A   Clear
12:35 AM 51.8 °F 23.0 °F 33% 29.80 in 10.0 mi North - - N/A   Clear
12:55 AM 51.8 °F 21.2 °F 30% 29.80 in 10.0 mi North - - N/A   Clear
1:15 AM 50.0 °F 21.2 °F 32% 29.81 in 10.0 mi North - - N/A   Clear
1:35 AM 46.4 °F 21.2 °F 37% 29.84 in 10.0 mi North - - N/A   Clear
1:55 AM 46.4 °F 21.2 °F 37% 29.84 in 10.0 mi North - - N/A   Clear
2:15 AM 44.6 °F 23.0 °F 43% 29.84 in 10.0 mi North - - N/A   Clear
2:35 AM 44.6 °F 23.0 °F 43% 29.85 in 10.0 mi North - - N/A   Clear
2:55 AM 44.6 °F 23.0 °F 43% 29.86 in 10.0 mi North - - N/A   Clear
3:15 AM 44.6 °F 21.2 °F 39% 29.87 in 10.0 mi North - - N/A   Clear
3:35 AM 44.6 °F 21.2 °F 39% 29.88 in 10.0 mi North - - N/A   Clear
3:55 AM 44.6 °F 21.2 °F 39% 29.88 in 10.0 mi North - - N/A   Clear
4:15 AM 42.8 °F 21.2 °F 42% 29.89 in 10.0 mi North - - N/A   Clear
4:35 AM 42.8 °F 21.2 °F 42% 29.90 in 10.0 mi North - - N/A   Clear
4:55 AM 42.8 °F 21.2 °F 42% 29.91 in 10.0 mi North - - N/A   Clear
5:15 AM 42.8 °F 19.4 °F 39% 29.93 in 10.0 mi North - - N/A   Clear
5:35 AM 42.8 °F 19.4 °F 39% 29.93 in 10.0 mi North - - N/A   Clear
5:55 AM 42.8 °F 21.2 °F 42% 29.95 in 10.0 mi North - - N/A   Clear
6:15 AM 42.8 °F 23.0 °F 46% 29.96 in 10.0 mi North - - N/A   Clear
6:35 AM 42.8 °F 23.0 °F 46% 29.97 in 10.0 mi North - - N/A   Clear
6:55 AM 41.0 °F 23.0 °F 49% 29.98 in 10.0 mi North - - N/A   Clear
7:15 AM 41.0 °F 23.0 °F 49% 30.00 in 10.0 mi North - - N/A   Clear
7:35 AM 41.0 °F 24.8 °F 53% 30.02 in 10.0 mi North - - N/A   Clear
7:55 AM 39.2 °F 24.8 °F 56% 30.03 in 10.0 mi North - - N/A   Clear
8:15 AM 41.0 °F 24.8 °F 53% 30.04 in 10.0 mi North - - N/A   Clear
8:35 AM 42.8 °F 26.6 °F 53% 30.05 in 10.0 mi North - - N/A   Clear
8:55 AM 44.6 °F 26.6 °F 49% 30.06 in 10.0 mi North - - N/A   Clear
9:15 AM 46.4 °F 26.6 °F 46% 30.08 in 10.0 mi North - - N/A   Clear
9:35 AM 46.4 °F 26.6 °F 46% 30.09 in 10.0 mi North - - N/A   Clear
9:55 AM 48.2 °F 28.4 °F 46% 30.10 in 10.0 mi North - - N/A   Scattered Clouds
10:15 AM 46.4 °F 26.6 °F 46% 30.11 in 10.0 mi North - - N/A   Scattered Clouds
10:35 AM 48.2 °F 26.6 °F 43% 30.13 in 10.0 mi North - - N/A   Clear
10:55 AM 50.0 °F 26.6 °F 40% 30.13 in 10.0 mi North - - N/A   Clear
11:15 AM 50.0 °F 24.8 °F 37% 30.14 in 10.0 mi North - - N/A   Clear
11:35 AM 50.0 °F 23.0 °F 35% 30.14 in 10.0 mi North - - N/A   Clear
11:55 AM 50.0 °F 23.0 °F 35% 30.15 in 10.0 mi North - - N/A   Clear
12:15 PM 51.8 °F 23.0 °F 33% 30.14 in 10.0 mi North - - N/A   Clear
12:35 PM 51.8 °F 23.0 °F 33% 30.14 in 10.0 mi North - - N/A   Clear
12:55 PM 51.8 °F 23.0 °F 33% 30.14 in 10.0 mi North - - N/A   Clear
1:15 PM 53.6 °F 21.2 °F 28% 30.13 in 10.0 mi North - - N/A   Clear
1:35 PM 53.6 °F 21.2 °F 28% 30.13 in 10.0 mi North - - N/A   Clear
1:55 PM 53.6 °F 21.2 °F 28% 30.13 in 10.0 mi North - - N/A   Clear
2:15 PM 53.6 °F 21.2 °F 28% 30.12 in 10.0 mi North - - N/A   Clear
2:35 PM 53.6 °F 21.2 °F 28% 30.12 in 10.0 mi North - - N/A   Clear
2:55 PM 53.6 °F 21.2 °F 28% 30.12 in 10.0 mi North - - N/A   Clear
3:15 PM 53.6 °F 21.2 °F 28% 30.12 in 10.0 mi North - - N/A   Clear
3:35 PM 53.6 °F 21.2 °F 28% 30.12 in 10.0 mi North - - N/A   Clear
3:55 PM 53.6 °F 21.2 °F 28% 30.13 in 10.0 mi North - - N/A   Clear
4:15 PM 53.6 °F 21.2 °F 28% 30.13 in 10.0 mi North - - N/A   Clear
4:35 PM 53.6 °F 21.2 °F 28% 30.13 in 10.0 mi North - - N/A   Clear
4:55 PM 53.6 °F 21.2 °F 28% 30.13 in 10.0 mi North - - N/A   Clear
5:15 PM 51.8 °F 21.2 °F 30% 30.14 in 10.0 mi North - - N/A   Clear
5:35 PM 51.8 °F 21.2 °F 30% 30.15 in 10.0 mi North - - N/A   Clear
5:55 PM 50.0 °F 21.2 °F 32% 30.16 in 10.0 mi North - - N/A   Clear
6:15 PM 48.2 °F 21.2 °F 34% 30.17 in 10.0 mi North - - N/A   Clear
6:35 PM 42.8 °F 21.2 °F 42% 30.17 in 10.0 mi North - - N/A   Clear
6:55 PM 41.0 °F 21.2 °F 45% 30.18 in 10.0 mi North - - N/A   Clear
7:15 PM 41.0 °F 21.2 °F 45% 30.19 in 10.0 mi North - - N/A   Clear
7:35 PM 37.4 °F 21.2 °F 52% 30.19 in 10.0 mi North - - N/A   Clear
7:55 PM 35.6 °F 19.4 °F 52% 30.20 in 10.0 mi North - - N/A   Clear
8:15 PM 35.6 °F 19.4 °F 52% 30.21 in 10.0 mi North - - N/A   Clear
8:35 PM 33.8 °F 17.6 °F 52% 30.21 in 10.0 mi North - - N/A   Clear
8:55 PM 32.0 °F 17.6 °F 55% 30.21 in 10.0 mi North - - N/A   Clear
9:15 PM 32.0 °F 19.4 °F 60% 30.22 in 10.0 mi North - - N/A   Clear
9:35 PM 32.0 °F 19.4 °F 60% 30.22 in 10.0 mi North - - N/A   Clear
9:55 PM 33.8 °F 21.2 °F 60% 30.23 in 10.0 mi North - - N/A   Clear
10:15 PM 32.0 °F 19.4 °F 60% 30.23 in 10.0 mi North - - N/A   Clear
10:35 PM 28.4 °F 17.6 °F 64% 30.23 in 10.0 mi North - - N/A   Clear
11:15 PM 28.4 °F 15.8 °F 59% 30.24 in 10.0 mi North - - N/A   Clear
11:35 PM 26.6 °F 14.0 °F 59% 30.24 in 10.0 mi North - - N/A   Clear
11:55 PM 26.6 °F 15.8 °F 64% 30.24 in 10.0 mi North - - N/A   Clear